K3ZED-2 Weather Reports


Display with metric or nautical units.
time (UTC)temp
F
wind
direction
speed
MPH
gust
MPH
rain 1hr
in
rain 24hr
in
rain mn
in
humidity
%
barometer
mb
20260906214523 77 18 0.0 5.0 0.00 0.00 0.00 58 1015.5
20260906213023 77 352 0.0 4.0 0.00 0.00 0.00 60 1015.4
20260906211521 78 344 0.0 2.0 0.00 0.00 0.00 59 1015.4
20260906210022 78 296 0.0 4.0 0.00 0.00 0.00 59 1015.3
20260906204521 77 85 0.0 8.0 0.00 0.00 0.00 60 1015.3
20260906203021 77 345 0.0 5.0 0.00 0.00 0.00 62 1015.3
20260906201519 78 55 0.0 4.0 0.00 0.00 0.00 63 1015.3
20260906200018 78 1 0.0 8.0 0.00 0.00 0.00 64 1015.3
20260906194517 78 281 0.0 5.0 0.00 0.00 0.00 63 1015.3
20260906193015 77 303 0.0 8.0 0.00 0.00 0.00 63 1015.4
20260906191515 76 287 0.0 6.0 0.00 0.00 0.00 64 1015.4
20260906190014 76 43 0.0 3.0 0.00 0.00 0.00 66 1015.3
20260906184514 76 304 0.0 3.0 0.00 0.00 0.00 67 1015.4
20260906183013 75 103 0.0 3.0 0.00 0.00 0.00 69 1015.5
20260906181512 75 87 0.0 4.0 0.00 0.00 0.00 71 1015.7
20260906180011 76 308 0.0 5.0 0.00 0.00 0.00 67 1015.7
20260906174511 76 31 0.0 1.0 0.00 0.00 0.00 68 1015.7
20260906173009 76 34 0.0 4.0 0.00 0.00 0.00 67 1015.9
20260906171505 76 122 0.0 3.0 0.00 0.00 0.00 70 1015.8
20260906170003 74 91 0.0 2.0 0.00 0.00 0.00 72 1015.9
20260906164503 73 41 0.0 2.0 0.00 0.00 0.00 73 1016.0
20260906163004 75 6 0.0 4.0 0.00 0.00 0.00 71 1015.9
20260906161604 75 61 0.0 6.0 0.00 0.00 0.00 69 1015.9
20260906160057 74 75 0.0 4.0 0.00 0.00 0.00 72 1016.0
20260906154602 73 62 0.0 2.0 0.00 0.00 0.00 73 1016.0
20260906153056 73 70 0.0 3.0 0.00 0.00 0.00 75 1016.0
20260906151552 73 40 0.0 1.0 0.00 0.00 0.00 73 1016.0
20260906144549 73 356 0.0 3.0 0.00 0.00 0.00 72 1015.8
20260906143047 73 35 0.0 5.0 0.00 0.00 0.00 73 1015.7
20260906141546 72 66 0.0 1.0 0.00 0.00 0.00 76 1015.6
20260906140041 71 62 0.0 4.0 0.00 0.00 0.00 76 1015.5
20260906134538 71 122 0.0 7.0 0.00 0.00 0.00 77 1015.5
20260906133036 70 6 0.0 4.0 0.00 0.00 0.00 79 1015.5
20260906131532 68 79 0.0 2.0 0.00 0.00 0.00 81 1015.4
20260906130043 67 34 0.0 0.0 0.00 0.00 0.00 83 1015.5
20260906124525 66 331 0.0 3.0 0.00 0.00 0.00 84 1015.4
20260906123034 65 332 0.0 2.0 0.00 0.00 0.00 86 1015.3
20260906121518 63 294 0.0 3.0 0.00 0.00 0.00 89 1015.2
20260906120014 62 318 0.0 3.0 0.00 0.00 0.00 90 1015.1
20260906114512 61 350 0.0 0.0 0.00 0.00 0.00 91 1015.0
20260906113014 60 346 0.0 1.0 0.00 0.00 0.00 92 1014.8
20260906111507 60 316 0.0 1.0 0.00 0.00 0.00 92 1014.6
20260906110005 59 356 0.0 1.0 0.00 0.00 0.00 93 1014.4
20260906104507 59 348 0.0 3.0 0.00 0.00 0.00 93 1014.2
20260906103009 59 332 0.0 1.0 0.00 0.00 0.00 93 1014.0
20260906101501 59 304 0.0 1.0 0.00 0.00 0.00 92 1013.8
20260906100103 59 330 0.0 0.0 0.00 0.00 0.00 93 1013.7
20260906094602 59 356 0.0 1.0 0.00 0.00 0.00 92 1013.6
20260906093057 59 328 0.0 0.0 0.00 0.00 0.00 92 1013.4
20260906091557 59 324 0.0 0.0 0.00 0.00 0.00 92 1013.3
20260906090057 59 324 0.0 0.0 0.00 0.00 0.00 92 1013.0
20260906084557 59 324 0.0 0.0 0.00 0.00 0.00 92 1012.8
20260906083053 59 324 0.0 0.0 0.00 0.00 0.00 91 1012.8
20260906081551 60 313 0.0 0.0 0.00 0.00 0.00 91 1012.7
20260906080056 60 356 0.0 0.0 0.00 0.00 0.00 91 1012.6
20260906074553 60 1 0.0 1.0 0.00 0.00 0.00 91 1012.6
20260906073052 60 21 0.0 0.0 0.00 0.00 0.00 91 1012.7
20260906071548 60 334 0.0 0.0 0.00 0.00 0.00 91 1012.6
20260906070048 60 356 0.0 0.0 0.00 0.00 0.00 91 1012.7
20260906064547 60 15 0.0 0.0 0.00 0.00 0.00 91 1012.7
20260906063047 60 16 0.0 0.0 0.00 0.00 0.00 91 1012.6
20260906061543 60 351 0.0 3.0 0.00 0.00 0.00 92 1012.7
20260906060043 60 1 0.0 0.0 0.00 0.00 0.00 92 1012.7
20260906054559 60 356 0.0 0.0 0.00 0.00 0.00 92 1012.8
20260906053041 60 347 0.0 0.0 0.00 0.00 0.00 92 1012.9
20260906051539 60 324 0.0 0.0 0.00 0.00 0.00 92 1013.1
20260906050040 60 327 0.0 0.0 0.00 0.00 0.00 92 1013.2
20260906044538 61 327 0.0 0.0 0.00 0.00 0.00 92 1013.2
20260906043037 61 341 0.0 0.0 0.00 0.00 0.00 92 1013.2
20260906041535 61 356 0.0 0.0 0.00 0.00 0.00 92 1013.2
20260906040044 61 6 0.0 0.0 0.00 0.00 0.00 92 1013.3
20260906034539 61 6 0.0 0.0 0.00 0.00 0.00 91 1013.3
20260906033034 61 6 0.0 0.0 0.00 0.00 0.00 91 1013.1
20260906031553 62 6 0.0 0.0 0.00 0.00 0.00 91 1013.0
20260906030015 62 6 0.0 0.0 0.00 0.00 0.00 91 1013.0
20260906024534 62 6 0.0 0.0 0.00 0.00 0.00 90 1013.0
20260906023007 63 6 0.0 0.0 0.00 0.00 0.00 90 1012.9
20260906021503 63 6 0.0 0.0 0.00 0.00 0.00 90 1012.7
20260906020058 63 6 0.0 0.0 0.00 0.00 0.00 89 1012.7
20260906014555 64 6 0.0 0.0 0.00 0.00 0.00 89 1012.6
20260906013051 64 6 0.0 0.0 0.00 0.00 0.00 88 1012.5
20260906011545 64 6 0.0 0.0 0.00 0.00 0.00 88 1012.4
20260906010049 65 6 0.0 0.0 0.00 0.00 0.00 87 1012.1
20260906004540 65 6 0.0 0.0 0.00 0.00 0.00 85 1012.0
20260906003033 66 6 0.0 0.0 0.00 0.00 0.00 84 1011.9
20260906001533 67 6 0.0 0.0 0.00 0.00 0.00 83 1011.7
20260906000024 69 6 0.0 0.0 0.00 0.00 0.00 82 1011.6
20260905234519 70 6 0.0 0.0 0.00 0.00 0.00 80 1011.4
20260905233015 72 6 0.0 0.0 0.00 0.00 0.00 78 1011.4
20260905231511 73 6 0.0 0.0 0.00 0.00 0.00 75 1011.2
20260905230011 74 6 0.0 0.0 0.00 0.00 0.00 70 1011.2
20260905224506 75 12 0.0 1.0 0.00 0.00 0.00 65 1011.3
20260905223058 76 333 0.0 2.0 0.00 0.00 0.00 64 1011.2
20260905221553 77 347 0.0 0.0 0.00 0.00 0.00 63 1011.1
20260905220049 78 19 0.0 2.0 0.00 0.00 0.00 62 1010.9